Flag for Canada Weather past 2 weeks in St. Catharines, Ontario, Canada

Now
31 °F

Chilly.


Feels Like: 21 °F
Forecast: 27 / 32 °F
Wind: 12 mph from Northwest

Location: Port Colborne Airport

Current Time: Dec 29, 2014 at 4:04:09 AM

Latest Report: Dec 29, 2014 at 3:00 AM


Visibility: N/A

Pressure: 30.19 "Hg

Humidity: 70%

Dew point: 22 °F

Location of St. CatharinesLocation

Historic Weather in St. Catharines — Graph

°F

St. Catharines temperature yesterday

Maximum temperature yesterday: 42 °F (at 12:00 AM)
Minimum temperature yesterday: 31 °F (at 9:00 PM)
Average temperature yesterday: 36 °F

Past Weeks' High & Low Weather Summary

 TemperatureHumidityPressure
High50 °F (Dec 24, 8:00 PM)98% (Dec 15, 7:00 PM)30.35 "Hg (Dec 15, 7:00 PM)
Low22 °F (Dec 20, 8:00 AM)59% (Dec 21, 1:00 PM)29.21 "Hg (Dec 24, 9:00 PM)
Average36 °F80%30.03 "Hg
* Reported Dec 14 3:00 AM — Dec 29 3:00 AM, St. Catharines, Weather by CustomWeather, © 2014

Note: Actual official high and low records may vary slightly from our data, if they occured in-between our weather recording intervals... More about our weather records

Advertising

St. Catharines weather history for previous 24 hours

 ConditionsComfort  
Time TempWeatherWind HumidityBarometerVisibility
3:00 AM
Dec 29
31 °FChilly.12 mph70%30.19 "HgN/A
2:00 AM31 °FChilly.12 mph68%30.18 "HgN/A
1:00 AM33 °FChilly.12 mph63%30.16 "HgN/A
12:00 AM32 °FChilly.12 mph69%30.16 "HgN/A
11:00 PM
Dec 28
32 °FChilly.12 mph69%30.16 "HgN/A
10:00 PM32 °FChilly.10 mph71%30.14 "HgN/A
9:00 PM31 °FChilly.9 mph73%30.13 "HgN/A
8:00 PM34 °FChilly.10 mph65%30.12 "HgN/A
7:00 PM36 °FChilly.16 mph64%30.11 "HgN/A
6:00 PM37 °FChilly.14 mph62%30.09 "HgN/A
5:00 PM37 °FChilly.15 mph63%30.07 "HgN/A
4:00 PM36 °FChilly.13 mph63%30.06 "HgN/A
3:00 PM36 °FChilly.10 mph61%30.05 "HgN/A
2:00 PM35 °FChilly.10 mph60%30.04 "HgN/A
1:00 PM34 °FChilly.15 mph63%30.04 "HgN/A
12:00 PM35 °FChilly.18 mph63%30.05 "HgN/A
11:00 AM35 °FChilly.20 mph66%30.05 "HgN/A
10:00 AM35 °FChilly.15 mph69%30.04 "HgN/A
9:00 AM35 °FChilly.17 mph68%30.03 "HgN/A
8:00 AM37 °FChilly.10 mph78%30.01 "HgN/A
7:00 AM38 °FChilly.15 mph85%29.98 "HgN/A
6:00 AM38 °FChilly.20 mph85%29.96 "HgN/A
5:00 AM38 °FChilly.20 mph86%29.94 "HgN/A
4:00 AM37 °FChilly.14 mph87%29.93 "HgN/A
Weather by CustomWeather, © 2014

See weather overviewHow to use our weather pages